| time (UTC) | temp F | wind direction | speed knots | gust knots | rain 1hr in | rain 24hr in | rain mn in | humidity % | barometer mb |
| 20260906105341 | 60 | 71 | 0.0 | 1.7 | 0.00 | 0.00 | 0.00 | 93 | 1016.8 |
| 20260906104838 | 60 | 71 | 0.9 | 1.7 | 0.00 | 0.00 | 0.00 | 93 | 1016.7 |
| 20260906104333 | 59 | 71 | 0.0 | 1.7 | 0.00 | 0.00 | 0.00 | 93 | 1016.7 |
| 20260906103850 | 59 | 71 | 0.0 | 1.7 | 0.00 | 0.00 | 0.00 | 93 | 1016.7 |
| 20260906103346 | 59 | 71 | 0.9 | 1.7 | 0.00 | 0.00 | 0.00 | 93 | 1016.6 |
| 20260906102846 | 59 | 71 | 0.9 | 1.7 | 0.00 | 0.00 | 0.00 | 92 | 1016.6 |
| 20260906102342 | 59 | 71 | 0.9 | 1.7 | 0.00 | 0.00 | 0.00 | 92 | 1016.6 |
| 20260906101859 | 59 | 71 | 0.0 | 1.7 | 0.00 | 0.00 | 0.00 | 92 | 1016.6 |
| 20260906101335 | 59 | 71 | 0.0 | 1.7 | 0.00 | 0.00 | 0.00 | 92 | 1016.6 |
| 20260906100851 | 59 | 71 | 0.0 | 0.9 | 0.00 | 0.00 | 0.00 | 92 | 1016.6 |
| 20260906100347 | 59 | 71 | 0.0 | 0.9 | 0.00 | 0.00 | 0.00 | 92 | 1016.5 |
| 20260906095835 | 59 | 71 | 0.0 | 0.9 | 0.00 | 0.00 | 0.00 | 92 | 1016.5 |
| 20260906095351 | 59 | 71 | 0.0 | 0.0 | 0.00 | 0.00 | 0.00 | 92 | 1016.5 |
| 20260906094846 | 59 | 71 | 0.0 | 0.0 | 0.00 | 0.00 | 0.00 | 92 | 1016.3 |
| 20260906094403 | 59 | 71 | 0.0 | 0.0 | 0.00 | 0.00 | 0.00 | 92 | 1016.3 |
| 20260906093858 | 59 | 71 | 0.0 | 0.9 | 0.00 | 0.00 | 0.00 | 92 | 1016.3 |
| 20260906093333 | 59 | 71 | 0.0 | 0.9 | 0.00 | 0.00 | 0.00 | 91 | 1016.2 |
| 20260906092850 | 59 | 71 | 0.0 | 0.0 | 0.00 | 0.00 | 0.00 | 91 | 1016.1 |
| 20260906092342 | 59 | 71 | 0.0 | 0.0 | 0.00 | 0.00 | 0.00 | 91 | 1016.0 |
| 20260906091840 | 59 | 71 | 0.0 | 0.9 | 0.00 | 0.00 | 0.00 | 91 | 1016.0 |
| 20260906091336 | 59 | 71 | 0.0 | 0.9 | 0.00 | 0.00 | 0.00 | 91 | 1016.0 |
| 20260906090851 | 59 | 71 | 0.0 | 0.0 | 0.00 | 0.00 | 0.00 | 91 | 1016.0 |
| 20260906090347 | 59 | 71 | 0.0 | 0.0 | 0.00 | 0.00 | 0.00 | 91 | 1016.0 |
| 20260906085836 | 59 | 71 | 0.0 | 0.0 | 0.00 | 0.00 | 0.00 | 90 | 1015.9 |
| 20260906085352 | 59 | 71 | 0.0 | 0.0 | 0.00 | 0.00 | 0.00 | 90 | 1015.8 |
| 20260906084847 | 59 | 71 | 0.0 | 0.0 | 0.00 | 0.00 | 0.00 | 90 | 1015.8 |
| 20260906084347 | 59 | 71 | 0.0 | 0.0 | 0.00 | 0.00 | 0.00 | 91 | 1015.8 |
| 20260906083844 | 59 | 71 | 0.0 | 1.7 | 0.00 | 0.00 | 0.00 | 90 | 1015.6 |
| 20260906083341 | 59 | 71 | 0.0 | 1.7 | 0.00 | 0.00 | 0.00 | 90 | 1015.6 |
| 20260906082857 | 59 | 71 | 0.0 | 0.9 | 0.00 | 0.00 | 0.00 | 90 | 1015.6 |
| 20260906082353 | 59 | 71 | 0.0 | 1.7 | 0.00 | 0.00 | 0.00 | 90 | 1015.5 |
| 20260906081847 | 59 | 71 | 0.0 | 1.7 | 0.00 | 0.00 | 0.00 | 90 | 1015.5 |
| 20260906081345 | 59 | 71 | 0.0 | 0.9 | 0.00 | 0.00 | 0.00 | 90 | 1015.6 |
| 20260906080901 | 59 | 71 | 0.0 | 1.7 | 0.00 | 0.00 | 0.00 | 89 | 1015.4 |
| 20260906080336 | 59 | 71 | 0.0 | 1.7 | 0.00 | 0.00 | 0.00 | 90 | 1015.4 |
| 20260906075844 | 59 | 71 | 0.9 | 1.7 | 0.00 | 0.00 | 0.00 | 89 | 1015.4 |
| 20260906075341 | 60 | 71 | 0.0 | 2.6 | 0.00 | 0.00 | 0.00 | 88 | 1015.3 |
| 20260906074838 | 60 | 71 | 0.0 | 2.6 | 0.00 | 0.00 | 0.00 | 89 | 1015.3 |
| 20260906074354 | 60 | 71 | 0.0 | 1.7 | 0.00 | 0.00 | 0.00 | 90 | 1015.5 |
| 20260906073849 | 59 | 71 | 0.0 | 1.7 | 0.00 | 0.00 | 0.00 | 91 | 1015.4 |
| 20260906073345 | 59 | 71 | 0.9 | 1.7 | 0.00 | 0.00 | 0.00 | 90 | 1015.5 |
| 20260906072842 | 59 | 71 | 0.0 | 1.7 | 0.00 | 0.00 | 0.00 | 90 | 1015.3 |
| 20260906072358 | 59 | 71 | 0.0 | 1.7 | 0.00 | 0.00 | 0.00 | 90 | 1015.2 |
| 20260906071833 | 59 | 71 | 0.0 | 1.7 | 0.00 | 0.00 | 0.00 | 90 | 1015.2 |
| 20260906071350 | 59 | 71 | 0.0 | 1.7 | 0.00 | 0.00 | 0.00 | 90 | 1015.2 |
| 20260906070846 | 59 | 71 | 0.9 | 1.7 | 0.00 | 0.00 | 0.00 | 90 | 1015.2 |
| 20260906070342 | 59 | 71 | 0.0 | 1.7 | 0.00 | 0.00 | 0.00 | 90 | 1015.2 |
| 20260906065834 | 59 | 71 | 0.0 | 1.7 | 0.00 | 0.00 | 0.00 | 90 | 1015.3 |
| 20260906065350 | 60 | 71 | 0.0 | 0.9 | 0.00 | 0.00 | 0.00 | 89 | 1015.4 |
| 20260906064846 | 60 | 71 | 0.0 | 0.9 | 0.00 | 0.00 | 0.00 | 88 | 1015.3 |
| 20260906064342 | 60 | 71 | 0.0 | 1.7 | 0.00 | 0.00 | 0.00 | 88 | 1015.3 |
| 20260906063837 | 61 | 71 | 0.9 | 2.6 | 0.00 | 0.00 | 0.00 | 88 | 1015.3 |
| 20260906063334 | 61 | 71 | 0.0 | 2.6 | 0.00 | 0.00 | 0.00 | 88 | 1015.4 |
| 20260906062849 | 61 | 71 | 0.9 | 3.5 | 0.00 | 0.00 | 0.00 | 87 | 1015.4 |
| 20260906062407 | 61 | 71 | 1.7 | 3.5 | 0.00 | 0.00 | 0.00 | 88 | 1015.3 |
| 20260906061840 | 61 | 61 | 0.9 | 1.7 | 0.00 | 0.00 | 0.00 | 88 | 1015.4 |
| 20260906061336 | 61 | 61 | 0.9 | 1.7 | 0.00 | 0.00 | 0.00 | 87 | 1015.3 |
| 20260906060911 | 61 | 61 | 0.0 | 2.6 | 0.00 | 0.00 | 0.00 | 87 | 1015.3 |
| 20260906060346 | 61 | 61 | 0.9 | 2.6 | 0.00 | 0.00 | 0.00 | 87 | 1015.3 |
| 20260906055834 | 61 | 76 | 0.9 | 1.7 | 0.00 | 0.00 | 0.00 | 87 | 1015.4 |
| 20260906055409 | 61 | 76 | 0.0 | 2.6 | 0.00 | 0.00 | 0.00 | 86 | 1015.4 |
| 20260906054844 | 62 | 76 | 0.9 | 2.6 | 0.00 | 0.00 | 0.00 | 86 | 1015.5 |
| 20260906054400 | 62 | 64 | 0.0 | 1.7 | 0.00 | 0.00 | 0.00 | 86 | 1015.5 |
| 20260906053836 | 62 | 64 | 0.9 | 2.6 | 0.00 | 0.00 | 0.00 | 86 | 1015.5 |
| 20260906053351 | 62 | 64 | 0.9 | 2.6 | 0.00 | 0.00 | 0.00 | 86 | 1015.5 |
| 20260906052848 | 62 | 64 | 0.9 | 2.6 | 0.00 | 0.00 | 0.00 | 86 | 1015.4 |
| 20260906052344 | 62 | 49 | 0.9 | 2.6 | 0.00 | 0.00 | 0.00 | 86 | 1015.5 |
| 20260906051840 | 62 | 49 | 0.0 | 1.7 | 0.00 | 0.00 | 0.00 | 86 | 1015.5 |
| 20260906051336 | 62 | 49 | 0.0 | 2.6 | 0.00 | 0.00 | 0.00 | 86 | 1015.4 |
| 20260906050837 | 62 | 49 | 0.0 | 2.6 | 0.00 | 0.00 | 0.00 | 86 | 1015.4 |
| 20260906050353 | 62 | 46 | 0.0 | 2.6 | 0.00 | 0.00 | 0.00 | 86 | 1015.4 |
| 20260906045841 | 62 | 46 | 0.9 | 2.6 | 0.00 | 0.00 | 0.00 | 86 | 1015.5 |
| 20260906045336 | 62 | 42 | 0.9 | 1.7 | 0.00 | 0.00 | 0.00 | 86 | 1015.4 |
| 20260906044833 | 62 | 42 | 0.9 | 2.6 | 0.00 | 0.00 | 0.00 | 86 | 1015.5 |
| 20260906044411 | 62 | 42 | 0.9 | 2.6 | 0.00 | 0.00 | 0.00 | 85 | 1015.5 |
| 20260906043905 | 62 | 42 | 0.0 | 2.6 | 0.00 | 0.00 | 0.00 | 85 | 1015.4 |
| 20260906043341 | 62 | 39 | 0.9 | 3.5 | 0.00 | 0.00 | 0.00 | 85 | 1015.5 |
| 20260906042837 | 62 | 39 | 1.7 | 3.5 | 0.00 | 0.00 | 0.00 | 85 | 1015.4 |
| 20260906042334 | 62 | 360 | 0.9 | 2.6 | 0.00 | 0.00 | 0.00 | 85 | 1015.4 |
| 20260906041910 | 62 | 96 | 0.0 | 1.7 | 0.00 | 0.00 | 0.00 | 86 | 1015.4 |
| 20260906041405 | 61 | 96 | 0.0 | 2.6 | 0.00 | 0.00 | 0.00 | 87 | 1015.4 |
| 20260906040901 | 61 | 96 | 0.9 | 2.6 | 0.00 | 0.00 | 0.00 | 87 | 1015.4 |
| 20260906040335 | 61 | 96 | 0.0 | 0.9 | 0.00 | 0.00 | 0.00 | 88 | 1015.4 |
| 20260906035844 | 61 | 96 | 0.0 | 0.9 | 0.00 | 0.00 | 0.00 | 89 | 1015.2 |
| 20260906035341 | 61 | 96 | 0.0 | 1.7 | 0.00 | 0.00 | 0.00 | 89 | 1015.1 |
| 20260906034837 | 60 | 96 | 0.0 | 1.7 | 0.00 | 0.00 | 0.00 | 89 | 1015.2 |
| 20260906034333 | 60 | 96 | 0.0 | 1.7 | 0.00 | 0.00 | 0.00 | 90 | 1015.3 |
| 20260906033850 | 60 | 96 | 0.0 | 0.0 | 0.00 | 0.00 | 0.00 | 90 | 1015.2 |
| 20260906033346 | 60 | 96 | 0.0 | 0.9 | 0.00 | 0.00 | 0.00 | 89 | 1015.3 |
| 20260906032842 | 60 | 96 | 0.0 | 0.9 | 0.00 | 0.00 | 0.00 | 89 | 1015.2 |
| 20260906032358 | 60 | 96 | 0.0 | 0.9 | 0.00 | 0.00 | 0.00 | 89 | 1015.2 |
| 20260906031833 | 60 | 96 | 0.0 | 0.0 | 0.00 | 0.00 | 0.00 | 88 | 1015.2 |
| 20260906031348 | 60 | 96 | 0.0 | 0.0 | 0.00 | 0.00 | 0.00 | 88 | 1015.1 |
| 20260906030845 | 60 | 96 | 0.0 | 0.9 | 0.00 | 0.00 | 0.00 | 87 | 1015.0 |
| 20260906030340 | 61 | 96 | 0.0 | 1.7 | 0.00 | 0.00 | 0.00 | 86 | 1015.0 |
| 20260906025846 | 61 | 96 | 0.0 | 2.6 | 0.00 | 0.00 | 0.00 | 86 | 1014.9 |
| 20260906025347 | 62 | 96 | 0.9 | 2.6 | 0.00 | 0.00 | 0.00 | 85 | 1014.9 |
| 20260906024843 | 62 | 107 | 0.9 | 2.6 | 0.00 | 0.00 | 0.00 | 84 | 1015.0 |
| 20260906024340 | 62 | 48 | 0.9 | 2.6 | 0.00 | 0.00 | 0.00 | 84 | 1015.1 |
| 20260906023836 | 62 | 46 | 0.9 | 1.7 | 0.00 | 0.00 | 0.00 | 84 | 1015.1 |
| 20260906023351 | 62 | 46 | 0.9 | 2.6 | 0.00 | 0.00 | 0.00 | 84 | 1015.1 |
| 20260906022847 | 62 | 46 | 0.9 | 1.7 | 0.00 | 0.00 | 0.00 | 83 | 1015.2 |
| 20260906022343 | 62 | 46 | 0.0 | 1.7 | 0.00 | 0.00 | 0.00 | 83 | 1015.1 |
| 20260906021840 | 62 | 46 | 0.0 | 1.7 | 0.00 | 0.00 | 0.00 | 83 | 1015.0 |
| 20260906021336 | 62 | 46 | 0.0 | 1.7 | 0.00 | 0.00 | 0.00 | 82 | 1015.0 |
| 20260906020852 | 63 | 46 | 0.0 | 1.7 | 0.00 | 0.00 | 0.00 | 81 | 1015.0 |
| 20260906020348 | 63 | 46 | 0.0 | 0.9 | 0.00 | 0.00 | 0.00 | 81 | 1014.9 |
| 20260906015835 | 63 | 46 | 0.0 | 1.7 | 0.00 | 0.00 | 0.00 | 81 | 1014.9 |
| 20260906015333 | 63 | 46 | 0.9 | 1.7 | 0.00 | 0.00 | 0.00 | 81 | 1014.8 |
| 20260906014848 | 63 | 46 | 0.0 | 1.7 | 0.00 | 0.00 | 0.00 | 81 | 1014.9 |
| 20260906014345 | 63 | 46 | 0.0 | 1.7 | 0.00 | 0.00 | 0.00 | 80 | 1014.9 |
| 20260906013841 | 63 | 49 | 0.0 | 2.6 | 0.00 | 0.00 | 0.00 | 79 | 1015.0 |
| 20260906013400 | 64 | 49 | 0.9 | 2.6 | 0.00 | 0.00 | 0.00 | 79 | 1014.9 |
| 20260906012855 | 64 | 38 | 0.0 | 2.6 | 0.00 | 0.00 | 0.00 | 79 | 1014.8 |
| 20260906012336 | 64 | 37 | 0.9 | 5.2 | 0.00 | 0.00 | 0.00 | 79 | 1014.9 |
| 20260906011851 | 64 | 37 | 1.7 | 5.2 | 0.00 | 0.00 | 0.00 | 79 | 1014.8 |
| 20260906011348 | 64 | 99 | 1.7 | 5.2 | 0.00 | 0.00 | 0.00 | 79 | 1014.9 |
| 20260906010904 | 64 | 360 | 1.7 | 5.2 | 0.00 | 0.00 | 0.00 | 79 | 1014.8 |
| 20260906010340 | 63 | 18 | 1.7 | 4.3 | 0.00 | 0.00 | 0.00 | 79 | 1014.7 |
| 20260906005848 | 63 | 38 | 0.9 | 4.3 | 0.00 | 0.00 | 0.00 | 81 | 1014.7 |
| 20260906005345 | 63 | 32 | 0.0 | 0.9 | 0.00 | 0.00 | 0.00 | 81 | 1014.6 |
| 20260906004840 | 64 | 32 | 0.0 | 2.6 | 0.00 | 0.00 | 0.00 | 80 | 1014.6 |
| 20260906004357 | 64 | 32 | 0.9 | 2.6 | 0.00 | 0.00 | 0.00 | 80 | 1014.5 |
| 20260906003832 | 64 | 32 | 0.9 | 2.6 | 0.00 | 0.00 | 0.00 | 80 | 1014.6 |
| 20260906003349 | 63 | 31 | 1.7 | 2.6 | 0.00 | 0.00 | 0.00 | 81 | 1014.6 |
| 20260906002846 | 63 | 360 | 0.9 | 2.6 | 0.00 | 0.00 | 0.00 | 81 | 1014.6 |
| 20260906002342 | 64 | 17 | 0.9 | 3.5 | 0.00 | 0.00 | 0.00 | 81 | 1014.5 |
| 20260906001838 | 64 | 39 | 0.9 | 3.5 | 0.00 | 0.00 | 0.00 | 81 | 1014.4 |
| 20260906001334 | 64 | 5 | 0.9 | 3.5 | 0.00 | 0.00 | 0.00 | 81 | 1014.4 |
| 20260906000851 | 64 | 337 | 0.9 | 2.6 | 0.00 | 0.00 | 0.00 | 81 | 1014.4 |
| 20260906000348 | 64 | 343 | 0.9 | 2.6 | 0.00 | 0.00 | 0.00 | 80 | 1014.5 |
| 20260905235835 | 64 | 350 | 0.9 | 2.6 | 0.00 | 0.00 | 0.00 | 80 | 1014.4 |
| 20260905235351 | 64 | 351 | 0.0 | 3.5 | 0.00 | 0.00 | 0.00 | 80 | 1014.4 |
| 20260905234908 | 64 | 360 | 1.7 | 3.5 | 0.00 | 0.00 | 0.00 | 79 | 1014.4 |
| 20260905234343 | 64 | 338 | 1.7 | 3.5 | 0.00 | 0.00 | 0.00 | 79 | 1014.3 |
| 20260905233841 | 65 | 336 | 0.9 | 2.6 | 0.00 | 0.00 | 0.00 | 78 | 1014.3 |
| 20260905233341 | 65 | 333 | 0.9 | 2.6 | 0.00 | 0.00 | 0.00 | 78 | 1014.3 |
| 20260905232837 | 65 | 339 | 0.9 | 2.6 | 0.00 | 0.00 | 0.00 | 77 | 1014.3 |
| 20260905232414 | 65 | 295 | 1.7 | 7.8 | 0.00 | 0.00 | 0.00 | 76 | 1014.4 |
| 20260905231848 | 66 | 333 | 1.7 | 7.8 | 0.00 | 0.00 | 0.00 | 76 | 1014.5 |
| 20260905231344 | 66 | 355 | 0.9 | 4.3 | 0.00 | 0.00 | 0.00 | 76 | 1014.5 |
| 20260905230840 | 66 | 342 | 2.6 | 3.5 | 0.00 | 0.00 | 0.00 | 77 | 1014.5 |
| 20260905230336 | 66 | 17 | 1.7 | 3.5 | 0.00 | 0.00 | 0.00 | 76 | 1014.7 |
| 20260905225844 | 66 | 326 | 0.9 | 2.6 | 0.00 | 0.00 | 0.00 | 76 | 1014.5 |
| 20260905225402 | 66 | 318 | 0.0 | 1.7 | 0.00 | 0.00 | 0.00 | 75 | 1014.4 |
| 20260905224838 | 66 | 313 | 0.9 | 2.6 | 0.00 | 0.00 | 0.00 | 76 | 1014.5 |
| 20260905224335 | 66 | 290 | 0.9 | 2.6 | 0.00 | 0.00 | 0.00 | 75 | 1014.4 |
| 20260905223850 | 67 | 312 | 1.7 | 4.3 | 0.00 | 0.00 | 0.00 | 75 | 1014.5 |
| 20260905223347 | 67 | 5 | 0.9 | 6.1 | 0.00 | 0.00 | 0.00 | 74 | 1014.7 |
| 20260905222844 | 68 | 347 | 2.6 | 7.0 | 0.00 | 0.00 | 0.00 | 73 | 1014.6 |
| 20260905222342 | 68 | 355 | 2.6 | 7.0 | 0.00 | 0.00 | 0.00 | 73 | 1014.6 |
| 20260905221858 | 68 | 36 | 2.6 | 7.0 | 0.00 | 0.00 | 0.00 | 72 | 1014.5 |
| 20260905221335 | 68 | 57 | 1.7 | 3.5 | 0.00 | 0.00 | 0.00 | 76 | 1014.4 |
| 20260905220833 | 67 | 335 | 0.0 | 2.6 | 0.00 | 0.00 | 0.00 | 76 | 1014.4 |
| 20260905220330 | 67 | 335 | 0.9 | 1.7 | 0.00 | 0.00 | 0.00 | 76 | 1014.4 |
| 20260905215839 | 66 | 335 | 0.0 | 2.6 | 0.00 | 0.00 | 0.00 | 77 | 1014.4 |
| 20260905215340 | 67 | 335 | 0.9 | 2.6 | 0.00 | 0.00 | 0.00 | 75 | 1014.3 |
| 20260905214857 | 67 | 348 | 0.9 | 5.2 | 0.00 | 0.00 | 0.00 | 75 | 1014.2 |
| 20260905214332 | 68 | 348 | 1.7 | 5.2 | 0.00 | 0.00 | 0.00 | 73 | 1014.1 |
| 20260905213850 | 68 | 299 | 2.6 | 7.8 | 0.00 | 0.00 | 0.00 | 71 | 1014.1 |
| 20260905213346 | 69 | 300 | 2.6 | 7.8 | 0.00 | 0.00 | 0.00 | 70 | 1014.1 |
| 20260905212843 | 70 | 9 | 2.6 | 7.0 | 0.00 | 0.00 | 0.00 | 69 | 1014.1 |
| 20260905212359 | 70 | 66 | 2.6 | 5.2 | 0.00 | 0.00 | 0.00 | 68 | 1014.0 |
| 20260905211835 | 69 | 281 | 1.7 | 5.2 | 0.00 | 0.00 | 0.00 | 72 | 1013.9 |
| 20260905211352 | 69 | 288 | 2.6 | 5.2 | 0.00 | 0.00 | 0.00 | 71 | 1013.9 |
| 20260905210848 | 69 | 343 | 1.7 | 5.2 | 0.00 | 0.00 | 0.00 | 70 | 1013.9 |
| 20260905210341 | 70 | 321 | 1.7 | 5.2 | 0.00 | 0.00 | 0.00 | 68 | 1013.8 |
| 20260905205850 | 70 | 332 | 1.7 | 6.1 | 0.00 | 0.00 | 0.00 | 69 | 1013.8 |
| 20260905205345 | 70 | 348 | 1.7 | 6.1 | 0.00 | 0.00 | 0.00 | 69 | 1013.9 |
| 20260905204842 | 71 | 25 | 2.6 | 6.1 | 0.00 | 0.00 | 0.00 | 65 | 1013.8 |
| 20260905204339 | 71 | 17 | 2.6 | 7.0 | 0.00 | 0.00 | 0.00 | 69 | 1013.8 |
| 20260905203854 | 71 | 344 | 3.5 | 6.1 | 0.00 | 0.00 | 0.00 | 67 | 1013.9 |
| 20260905203349 | 71 | 285 | 1.7 | 6.1 | 0.00 | 0.00 | 0.00 | 65 | 1013.9 |
| 20260905202846 | 72 | 293 | 1.7 | 5.2 | 0.00 | 0.00 | 0.00 | 67 | 1013.8 |
| 20260905202343 | 72 | 338 | 3.5 | 5.2 | 0.00 | 0.00 | 0.00 | 65 | 1013.8 |
| 20260905201840 | 72 | 97 | 1.7 | 4.3 | 0.00 | 0.00 | 0.00 | 67 | 1013.8 |
| 20260905201340 | 71 | 148 | 1.7 | 4.3 | 0.00 | 0.00 | 0.00 | 68 | 1013.8 |
| 20260905200856 | 71 | 210 | 1.7 | 5.2 | 0.00 | 0.00 | 0.00 | 70 | 1013.9 |
| 20260905200331 | 70 | 13 | 2.6 | 7.8 | 0.00 | 0.00 | 0.00 | 69 | 1013.8 |
| 20260905195840 | 70 | 17 | 3.5 | 7.8 | 0.00 | 0.00 | 0.00 | 69 | 1013.9 |
| 20260905195357 | 70 | 63 | 1.7 | 5.2 | 0.00 | 0.00 | 0.00 | 69 | 1013.9 |
| 20260905194852 | 71 | 195 | 2.6 | 5.2 | 0.00 | 0.00 | 0.00 | 67 | 1014.0 |
| 20260905194408 | 70 | 197 | 1.7 | 3.5 | 0.00 | 0.00 | 0.00 | 71 | 1014.1 |
| 20260905193844 | 70 | 9 | 1.7 | 5.2 | 0.00 | 0.00 | 0.00 | 68 | 1014.1 |
| 20260905193340 | 70 | 57 | 1.7 | 7.0 | 0.00 | 0.00 | 0.00 | 68 | 1014.0 |
| 20260905192837 | 72 | 296 | 3.5 | 7.0 | 0.00 | 0.00 | 0.00 | 68 | 1014.1 |
| 20260905192334 | 72 | 311 | 2.6 | 9.6 | 0.00 | 0.00 | 0.00 | 67 | 1014.1 |
| 20260905191850 | 72 | 301 | 1.7 | 9.6 | 0.00 | 0.00 | 0.00 | 67 | 1014.1 |
| 20260905191406 | 71 | 333 | 3.5 | 8.7 | 0.00 | 0.00 | 0.00 | 68 | 1014.1 |
| 20260905190900 | 72 | 48 | 1.7 | 7.0 | 0.00 | 0.00 | 0.00 | 66 | 1014.1 |
| 20260905190355 | 72 | 262 | 3.5 | 7.8 | 0.00 | 0.00 | 0.00 | 69 | 1014.1 |
| 20260905185843 | 71 | 51 | 3.5 | 7.8 | 0.00 | 0.00 | 0.00 | 69 | 1014.2 |
| 20260905185339 | 71 | 248 | 2.6 | 4.3 | 0.00 | 0.00 | 0.00 | 68 | 1014.3 |
| 20260905184834 | 71 | 322 | 1.7 | 7.0 | 0.00 | 0.00 | 0.00 | 72 | 1014.2 |
| 20260905184350 | 70 | 63 | 3.5 | 7.0 | 0.00 | 0.00 | 0.00 | 72 | 1014.2 |
| 20260905183848 | 70 | 69 | 1.7 | 3.5 | 0.00 | 0.00 | 0.00 | 71 | 1014.3 |
| 20260905183343 | 71 | 5 | 0.9 | 4.3 | 0.00 | 0.00 | 0.00 | 65 | 1014.2 |
| 20260905182900 | 71 | 57 | 0.9 | 3.5 | 0.00 | 0.00 | 0.00 | 67 | 1014.3 |
| 20260905182335 | 70 | 351 | 0.9 | 3.5 | 0.00 | 0.00 | 0.00 | 73 | 1014.3 |
| 20260905181852 | 70 | 342 | 1.7 | 3.5 | 0.00 | 0.00 | 0.00 | 69 | 1014.2 |
| 20260905181347 | 71 | 17 | 1.7 | 5.2 | 0.00 | 0.00 | 0.00 | 68 | 1014.2 |
| 20260905180841 | 72 | 51 | 3.5 | 7.8 | 0.00 | 0.00 | 0.00 | 67 | 1014.2 |
| 20260905180335 | 71 | 15 | 3.5 | 7.8 | 0.00 | 0.00 | 0.00 | 68 | 1014.2 |
| 20260905175843 | 71 | 54 | 0.9 | 5.2 | 0.00 | 0.00 | 0.00 | 67 | 1014.2 |
| 20260905175344 | 71 | 317 | 2.6 | 5.2 | 0.00 | 0.00 | 0.00 | 67 | 1014.2 |
| 20260905174841 | 71 | 232 | 2.6 | 5.2 | 0.00 | 0.00 | 0.00 | 68 | 1014.2 |
| 20260905174338 | 71 | 24 | 1.7 | 3.5 | 0.00 | 0.00 | 0.00 | 70 | 1014.3 |
| 20260905173855 | 70 | 281 | 1.7 | 3.5 | 0.00 | 0.00 | 0.00 | 72 | 1014.2 |
| 20260905173412 | 70 | 232 | 1.7 | 7.0 | 0.00 | 0.00 | 0.00 | 73 | 1014.2 |
| 20260905172847 | 70 | 292 | 3.5 | 7.0 | 0.00 | 0.00 | 0.00 | 69 | 1014.3 |
| 20260905172344 | 68 | 28 | 1.7 | 5.2 | 0.00 | 0.00 | 0.00 | 74 | 1014.5 |
| 20260905171839 | 69 | 51 | 0.9 | 4.3 | 0.00 | 0.00 | 0.00 | 73 | 1014.4 |
| 20260905171357 | 69 | 294 | 1.7 | 5.2 | 0.00 | 0.00 | 0.00 | 72 | 1014.3 |
| 20260905170832 | 69 | 52 | 2.6 | 5.2 | 0.00 | 0.00 | 0.00 | 72 | 1014.3 |
| 20260905170329 | 69 | 9 | 2.6 | 4.3 | 0.00 | 0.00 | 0.00 | 72 | 1014.4 |
| 20260905165858 | 69 | 355 | 2.6 | 5.2 | 0.00 | 0.00 | 0.00 | 73 | 1014.4 |
| 20260905165335 | 68 | 50 | 2.6 | 5.2 | 0.00 | 0.00 | 0.00 | 74 | 1014.4 |
| 20260905164912 | 68 | 38 | 1.7 | 5.2 | 0.00 | 0.00 | 0.00 | 75 | 1014.3 |
| 20260905164408 | 68 | 45 | 1.7 | 5.2 | 0.00 | 0.00 | 0.00 | 72 | 1014.5 |
| 20260905163844 | 69 | 46 | 2.6 | 7.0 | 0.00 | 0.00 | 0.00 | 72 | 1014.5 |
| 20260905163343 | 69 | 344 | 3.5 | 7.8 | 0.00 | 0.00 | 0.00 | 72 | 1014.3 |
| 20260905162839 | 68 | 360 | 0.9 | 7.8 | 0.00 | 0.00 | 0.00 | 75 | 1014.4 |
| 20260905162342 | 69 | 30 | 3.5 | 7.8 | 0.00 | 0.00 | 0.00 | 74 | 1014.4 |
| 20260905161859 | 69 | 355 | 3.5 | 9.6 | 0.00 | 0.00 | 0.00 | 72 | 1014.4 |
| 20260905161334 | 69 | 53 | 2.6 | 9.6 | 0.00 | 0.00 | 0.00 | 71 | 1014.3 |
| 20260905160832 | 70 | 74 | 4.3 | 9.6 | 0.00 | 0.00 | 0.00 | 69 | 1014.4 |
| 20260905160349 | 70 | 67 | 5.2 | 9.6 | 0.00 | 0.00 | 0.00 | 72 | 1014.4 |
| 20260905155838 | 71 | 105 | 2.6 | 7.8 | 0.00 | 0.00 | 0.00 | 75 | 1014.4 |
| 20260905155339 | 69 | 96 | 3.5 | 7.0 | 0.00 | 0.00 | 0.00 | 73 | 1014.6 |
| 20260905154834 | 69 | 284 | 3.5 | 7.0 | 0.00 | 0.00 | 0.00 | 73 | 1014.6 |
| 20260905154350 | 70 | 271 | 0.9 | 7.0 | 0.00 | 0.00 | 0.00 | 74 | 1014.4 |
| 20260905153847 | 68 | 71 | 3.5 | 8.7 | 0.00 | 0.00 | 0.00 | 75 | 1014.5 |
| 20260905153343 | 69 | 84 | 4.3 | 11.3 | 0.00 | 0.00 | 0.00 | 73 | 1014.6 |
| 20260905152840 | 70 | 53 | 5.2 | 11.3 | 0.00 | 0.00 | 0.00 | 73 | 1014.5 |
| 20260905152338 | 70 | 349 | 2.6 | 6.1 | 0.00 | 0.00 | 0.00 | 77 | 1014.5 |
| 20260905151833 | 69 | 80 | 3.5 | 10.4 | 0.00 | 0.00 | 0.00 | 72 | 1014.6 |
| 20260905151351 | 69 | 336 | 4.3 | 13.0 | 0.00 | 0.00 | 0.00 | 75 | 1014.5 |
| 20260905150847 | 69 | 315 | 2.6 | 13.0 | 0.00 | 0.00 | 0.00 | 74 | 1014.5 |
| 20260905150403 | 70 | 111 | 3.5 | 9.6 | 0.00 | 0.00 | 0.00 | 74 | 1014.6 |
| 20260905145850 | 70 | 96 | 5.2 | 13.0 | 0.00 | 0.00 | 0.00 | 77 | 1014.6 |
| 20260905145407 | 69 | 70 | 3.5 | 13.0 | 0.00 | 0.00 | 0.00 | 75 | 1014.6 |
| 20260905144841 | 69 | 51 | 6.1 | 11.3 | 0.00 | 0.00 | 0.00 | 74 | 1014.5 |
| 20260905144337 | 69 | 88 | 3.5 | 10.4 | 0.00 | 0.00 | 0.00 | 74 | 1014.5 |
| 20260905143835 | 69 | 95 | 7.0 | 10.4 | 0.00 | 0.00 | 0.00 | 75 | 1014.4 |
| 20260905143351 | 69 | 107 | 3.5 | 8.7 | 0.00 | 0.00 | 0.00 | 74 | 1014.3 |
| 20260905142848 | 69 | 32 | 5.2 | 8.7 | 0.00 | 0.00 | 0.00 | 74 | 1014.4 |
| 20260905142344 | 68 | 74 | 3.5 | 8.7 | 0.00 | 0.00 | 0.00 | 77 | 1014.3 |
| 20260905141859 | 68 | 31 | 3.5 | 8.7 | 0.00 | 0.00 | 0.00 | 76 | 1014.5 |
| 20260905141340 | 68 | 22 | 4.3 | 7.8 | 0.00 | 0.00 | 0.00 | 78 | 1014.5 |
| 20260905140837 | 68 | 80 | 2.6 | 7.8 | 0.00 | 0.00 | 0.00 | 76 | 1014.5 |
| 20260905140333 | 68 | 28 | 2.6 | 7.0 | 0.00 | 0.00 | 0.00 | 80 | 1014.4 |
| 20260905135841 | 68 | 73 | 3.5 | 7.8 | 0.00 | 0.00 | 0.00 | 79 | 1014.5 |
| 20260905135338 | 68 | 44 | 2.6 | 8.7 | 0.00 | 0.00 | 0.00 | 80 | 1014.5 |
| 20260905134854 | 67 | 130 | 3.5 | 8.7 | 0.00 | 0.00 | 0.00 | 81 | 1014.5 |
| 20260905134349 | 67 | 73 | 3.5 | 7.8 | 0.00 | 0.00 | 0.00 | 81 | 1014.6 |
| 20260905133846 | 67 | 103 | 4.3 | 7.8 | 0.00 | 0.00 | 0.00 | 83 | 1014.6 |
| 20260905133341 | 67 | 355 | 2.6 | 6.1 | 0.00 | 0.00 | 0.00 | 85 | 1014.6 |
| 20260905132838 | 67 | 113 | 2.6 | 5.2 | 0.00 | 0.00 | 0.00 | 85 | 1014.6 |
| 20260905132335 | 66 | 47 | 1.7 | 4.3 | 0.00 | 0.00 | 0.00 | 86 | 1014.5 |
| 20260905131851 | 66 | 82 | 2.6 | 5.2 | 0.00 | 0.00 | 0.00 | 88 | 1014.5 |
| 20260905131348 | 65 | 141 | 1.7 | 5.2 | 0.00 | 0.00 | 0.00 | 86 | 1014.5 |
| 20260905130842 | 65 | 42 | 2.6 | 8.7 | 0.00 | 0.00 | 0.00 | 87 | 1014.4 |
| 20260905130338 | 65 | 31 | 3.5 | 8.7 | 0.00 | 0.00 | 0.00 | 87 | 1014.5 |
| 20260905125846 | 65 | 46 | 2.6 | 7.8 | 0.00 | 0.00 | 0.00 | 86 | 1014.4 |
| 20260905125343 | 65 | 20 | 3.5 | 7.0 | 0.00 | 0.00 | 0.00 | 87 | 1014.3 |
| 20260905124839 | 65 | 32 | 0.9 | 5.2 | 0.00 | 0.00 | 0.00 | 88 | 1014.4 |
| 20260905124356 | 65 | 61 | 0.9 | 7.0 | 0.00 | 0.00 | 0.00 | 88 | 1014.4 |
| 20260905123836 | 64 | 24 | 4.3 | 7.0 | 0.00 | 0.00 | 0.00 | 88 | 1014.5 |
| 20260905123352 | 64 | 28 | 3.5 | 6.1 | 0.00 | 0.00 | 0.00 | 88 | 1014.5 |
| 20260905122848 | 64 | 60 | 2.6 | 5.2 | 0.00 | 0.00 | 0.00 | 88 | 1014.5 |
| 20260905122344 | 64 | 76 | 2.6 | 5.2 | 0.00 | 0.00 | 0.00 | 88 | 1014.5 |
| 20260905121841 | 64 | 63 | 2.6 | 4.3 | 0.00 | 0.00 | 0.00 | 88 | 1014.5 |
| 20260905121336 | 64 | 42 | 2.6 | 5.2 | 0.00 | 0.00 | 0.00 | 89 | 1014.5 |
| 20260905120834 | 64 | 44 | 1.7 | 5.2 | 0.00 | 0.00 | 0.00 | 91 | 1014.5 |
| 20260905120329 | 63 | 57 | 0.9 | 3.5 | 0.00 | 0.00 | 0.00 | 92 | 1014.5 |
| 20260905115857 | 64 | 41 | 0.9 | 2.6 | 0.00 | 0.00 | 0.00 | 94 | 1014.6 |
| 20260905115333 | 63 | 44 | 0.0 | 2.6 | 0.00 | 0.00 | 0.00 | 94 | 1014.5 |
| 20260905114848 | 63 | 29 | 1.7 | 2.6 | 0.00 | 0.00 | 0.00 | 95 | 1014.5 |
| 20260905114345 | 63 | 29 | 0.9 | 1.7 | 0.00 | 0.00 | 0.00 | 95 | 1014.5 |
| 20260905113840 | 62 | 29 | 0.9 | 1.7 | 0.00 | 0.00 | 0.00 | 95 | 1014.5 |
| 20260905113357 | 62 | 29 | 0.9 | 2.6 | 0.00 | 0.00 | 0.00 | 94 | 1014.5 |
| 20260905112833 | 62 | 29 | 0.9 | 1.7 | 0.00 | 0.00 | 0.00 | 94 | 1014.5 |
| 20260905112348 | 62 | 29 | 0.0 | 1.7 | 0.00 | 0.00 | 0.00 | 94 | 1014.4 |
| 20260905111845 | 61 | 29 | 0.0 | 0.9 | 0.00 | 0.00 | 0.00 | 94 | 1014.2 |
| 20260905111342 | 61 | 29 | 0.0 | 1.7 | 0.00 | 0.00 | 0.00 | 94 | 1014.2 |
| 20260905110840 | 61 | 29 | 0.9 | 1.7 | 0.00 | 0.00 | 0.00 | 94 | 1014.1 |
| 20260905110356 | 61 | 29 | 0.0 | 1.7 | 0.00 | 0.00 | 0.00 | 94 | 1013.9 |
| 20260905105844 | 61 | 29 | 0.9 | 1.7 | 0.00 | 0.00 | 0.00 | 94 | 1013.9 |